METEOR 2-11 DEB, 40710

Orbit data source: Space-Track

METEOR 2-11 DEB, 40710 is space debris in LEO originally from a launch on Thu, 05 Jul 1984 UTC launched from the Plesetsk Missile And Space Complex (PKMTR). Debris objects in space refer to the collection of defunct objects orbiting the Earth. Examples of debris include non-operational satellites, rocket bodies, and fragments generated from explosions, collisions, or faulty payload assembly.

Loading next visibility...
METEOR 2-11 DEB details
Identifier
40710, 1984-072M
Orbit
LEO
Last TLE update2 days ago
Origin
Flag of CISVVKO (CIS)
ManufacturerUnknown
MissionSpacecraft
Bus & MotorUnknown
MassUnknown
Launch date (UTC)
1984-07-05 (40 years ago)
Launch vehicleUnknown
Launch site
Plesetsk Missile And Space Complex (PKMTR)
Object type
Payload
Rocket body
Debris
Shape & HBRUnknown
Radar Cross SectionSmall (<0.1 m²)

Expand to show TLE details & history

TLE from 2 days ago
0 METEOR 2-11 DEB
1 40710U 84072M   24359.98866496  .00004698  00000-0  34870-2 0  9993
2 40710  82.5227  88.2027 0035334 135.1223 225.2810 13.94600380 35903
Epoch: 2024-12-24T23:43Z
Definitive object data (Epoch: 2024-12-24T23:43:40.652Z)
Latitude-0.00001°
Longitude-1.70555°
Altitude933.645 km
Speed7.376 km/s
True Right ascension05h 52m 48s
True Declination0° 00' 00"
Sunlit
Object was in full shadow at TLE epoch
Visualization TLE readout
Latitude19.1802°
Longitude-0.50175°
Altitude924.028 km
Speed7.387 km/s
Apparent Right ascension05h 21m 45s
Apparent Declination-8° 16' 10"
Sunlit
Object is in full shadow
Visualization observer readout
Local Sidereal Time16:31:02
Azimuth336.896° NNW
Elevation-56.386°
Doppler factor1
Orbital elements
Apogee altitude935.443 km
Perigee altitude883.941 km
Semi-major axis7,287.829 km
Eccentricity0.0035334
Inclination82.5227°
RAAN88.2027°
Arg. of periapsis135.1223°
True anomaly224.99419°
Mean anomaly225.281°
Eccentric anomaly225.1375°
Mean motion3.48856 °/min
BSTAR0.003487
Orbital period103.19 mins
Loading maneuver chart data...
Loading historical data...
Loading historical data...
Loading historical data...
Loading historical data...
Loading historical data...
Loading historical data...
Loading historical data...

METEOR 2-11 DEB Visibility forecast

Observer location: undefined°, undefined

Span
Click to sort rows by Start time (UTC) header in descending order
Start Az.
Max El. time (UTC)
Max El. Az.
Max El.
End time (UTC)
End Az.
10 mins2024-12-26 17:37:44.956Z359.053° N2024-12-26 17:42:44.956Z63.597° ENE42.118°2024-12-26 17:47:44.956Z160.88° S
4 mins2024-12-26 19:24:44.956Z297.048° NW2024-12-26 19:26:44.956Z273.6° WNW14.935°2024-12-26 19:28:44.956Z251.268° W
5 mins2024-12-27 05:15:44.956Z107.509° ESE2024-12-27 05:17:44.956Z85.418° E15.115°2024-12-27 05:20:44.956Z52.597° ENE
10 mins2024-12-27 06:56:44.956Z198.491° SSW2024-12-27 07:01:44.956Z301.95° NW42.401°2024-12-27 07:06:44.956Z1.461° NNE
|